Regional Weather Roundup
Issued by NWS Little Rock, AR

Home | Current Version | Previous Version | Text Only | Print | Product List | Glossary On
Versions: 1 2 3 4 5 6 7 8 9 10 11 12 13 14 15 16 17 18 19 20 21 22 23 24 25 26 27
000
ASUS44 KLZK 161905
RWRLZK

WEATHER ROUNDUP FOR ARKANSAS
NATIONAL WEATHER SERVICE LITTLE ROCK AR
200 PM CDT WED APR 16 2014

NOTE: "FAIR" INDICATES FEW OR NO CLOUDS BELOW 12,000 FEET WITH NO
SIGNIFICANT WEATHER AND/OR OBSTRUCTIONS TO VISIBILITY.

ARZ001-003-010-029-162000-
NORTHWEST ARKANSAS

CITY           SKY/WX    TMP DP  RH WIND       PRES   REMARKS
FAYETTEVILLE   PTSUNNY   56  32  40 S16G23    30.07F
FORT SMITH     MOSUNNY   63  30  28 S13G22    30.08F
HARRISON       CLOUDY    59  25  27 S23G31    30.09F
BENTONVILLE    PTSUNNY   59  30  33 S21G29    30.05F
ROGERS         PTSUNNY   59  28  30 S24G32    30.04F
SILOAM SPGS      N/A    N/A N/A N/A MISG        N/A
HIGHFILL       PTSUNNY   58  31  35 S24G31    30.03F
SPRINGDALE     PTSUNNY   57  30  35 S16G32    30.08F
$$

ARZ004-005-016-162000-
NORTH CENTRAL ARKANSAS

CITY           SKY/WX    TMP DP  RH WIND       PRES   REMARKS
BATESVILLE     MOSUNNY   55  30  38 SE13G18   30.18F
FLIPPIN        MOSUNNY   57  27  30 SE12G17   30.12F
MTN HOME       PTSUNNY   58  24  27 S13G21    30.11F
$$

ARZ040-041-162000-
WEST CENTRAL ARKANSAS

CITY           SKY/WX    TMP DP  RH WIND       PRES   REMARKS
MENA           PTSUNNY   61  30  31 SE8       30.11F
MOUNT IDA      PTSUNNY   58  29  33 S9        30.11F
$$

ARZ009-017-025-026-028-162000-
NORTHEAST ARKANSAS

CITY           SKY/WX    TMP DP  RH WIND       PRES   REMARKS
CORNING          N/A     54  30  40 E10G16    30.22F
JONESBORO      SUNNY     53  28  38 VRB5      30.21F
NEWPORT        SUNNY     55  31  40 SE12      30.23F
WALNUT RIDGE   SUNNY     54  32  43 SE10      30.22F
BLYTHEVILLE    SUNNY     55  29  36 VRB6      30.22F
$$

ARZ022-023-033-042-044-162000-
CENTRAL ARKANSAS

CITY           SKY/WX    TMP DP  RH WIND       PRES   REMARKS
LITTLE ROCK    PTSUNNY   58  29  33 SE13      30.19F
N LITTLE ROCK  PTSUNNY   55  33  43 SE8G18    30.19F
JACKSONVILLE   PTSUNNY   57  30  36 SE8G17    30.18F
SEARCY         MOSUNNY   56  33  41 E9        30.21F
HOT SPRINGS    PTSUNNY   61  29  29 S9        30.15F
RUSSELLVILLE   PTSUNNY   60  30  32 S9        30.14F
CLINTON        FAIR      57  32  38 SE9       30.17F
$$

ARZ036-162000-
EAST ARKANSAS

CITY           SKY/WX    TMP DP  RH WIND       PRES   REMARKS
WEST MEMPHIS   SUNNY     56  27  32 SE6       30.19F
$$

ARZ050-053-066-070-073-162000-
SOUTHWEST ARKANSAS

CITY           SKY/WX    TMP DP  RH WIND       PRES   REMARKS
ARKADELPHIA    FAIR      61  32  33 S8        30.16F
CAMDEN         SUNNY     63  25  23 MISG      30.16F
TEXARKANA      PTSUNNY   60  32  34 VRB5      30.14F
EL DORADO      SUNNY     60  30  32 SE9       30.16F
DE QUEEN       PTSUNNY   60  34  37 SE9G16    30.12F
$$

ARZ056-057-069-162000-
SOUTHEAST ARKANSAS

CITY           SKY/WX    TMP DP  RH WIND       PRES   REMARKS
PINE BLUFF     MOSUNNY   56  33  42 E12       30.19F
STUTTGART      MOSUNNY   55  30  38 SE10      30.20F
MONTICELLO     SUNNY     58  30  34 S9        30.17F

$$





USA.gov is the U.S. government's official web portal to all federal, state and local government web resources and services.